Regional Weather Roundup
Issued by NWS

Home | Current Version | Previous Version | Graphics & Text | Print | Product List | Glossary On
Versions: 1 2 3 4 5 6 7 8 9 10 11 12 13 14 15 16 17 18 19 20 21 22 23 24 25 26 27 28 29 30 31 32 33 34 35 36 37 38 39 40 41 42 43 44 45 46 47 48 49 50
000
ASUS45 KTFX 261910
RWRMT
MONTANA REGIONAL WEATHER ROUNDUP
NATIONAL WEATHER SERVICE GREAT FALLS MT
100 PM MDT SAT MAY 26 2018

NOTE: "FAIR" INDICATES FEW OR NO CLOUDS BELOW 12000 FEET WITH NO
SIGNIFICANT WEATHER AND/OR OBSTRUCTIONS TO VISIBILITY.

MTZ001>007-043-262000-
WEST OF THE DIVIDE

CITY           SKY/WX    TMP DP  RH WIND       PRES   REMARKS
KALISPELL      CLOUDY    62  55  77 SE13      29.91R
MISSOULA       FAIR      69  50  50 NW7       29.91S
BUTTE          FAIR      69  44  40 W10       29.92F
MULLAN PASS    FOG       45  45 100 NW6       30.03R VSB<1/4
ANACONDA         N/A     64  46  52 N10       29.92S
DEER LODGE       N/A     64  48  55 MISG      29.94S
HAMILTON         N/A     64  48  55 MISG      29.93S
PLAINS           N/A     63  54  72 W6        29.95
RONAN            N/A     66  52  59 W5        29.93S
$$

MTZ008-052>055-262000-
SOUTHWEST MONTANA

CITY           SKY/WX    TMP DP  RH WIND       PRES   REMARKS
BOZEMAN        FAIR      71  54  54 NW6       29.87F
DILLON         FAIR      67  47  48 NW3       29.88F
ENNIS          SUNNY     68  48  49 W7        29.92F
W YELLOWSTONE  FAIR      68  36  30 SW9G18    29.94F
TWIN BRIDGES     N/A     71  46  40 W3        29.89S
$$

MTZ009-010-012-014-046-048-049-054-262000-
EAST SLOPES AND CENTRAL MONTANA

CITY           SKY/WX    TMP DP  RH WIND       PRES   REMARKS
CUT BANK       CLOUDY    63  49  60 NW21      29.87S
GREAT FALLS    FAIR      77  47  34 W16G25    29.82S
HELENA         FAIR      75  50  41 W12       29.84S
CHOTEAU          N/A     72  48  43 N20G25    29.88R
WHITE SULPHUR    N/A     72  46  40 N5        29.86F
$$

MTZ011-013-016-021-045-047-050-051-262000-
NORTH CENTRAL MONTANA

CITY           SKY/WX    TMP DP  RH WIND       PRES   REMARKS
HAVRE          FAIR      81  48  31 W8G17     29.73S
LEWISTOWN      FAIR      73  51  46 CALM      29.83S
N BAR RANCH    FAIR      75  50  41 CALM      29.85F
CHINOOK          N/A     81  52  36 SW8       29.72
$$

MTZ017>020-022>027-061-062-262000-
NORTHEAST MONTANA

CITY           SKY/WX    TMP DP  RH WIND       PRES   REMARKS
GLASGOW        FAIR      85  49  28 SE7       29.71S
GLENDIVE       FAIR      85  58  39 S10       29.74F
JORDAN           N/A     84  58  40 S7        29.72S
MALTA          SUNNY     84  54  34 SE7       29.68S
SIDNEY         FAIR      85  57  38 E8        29.73F
WOLF POINT     FAIR      86  52  30 VRB3      29.72S
PLENTYWOOD       N/A     84  52  32 SW7       29.74S
POPLAR           N/A     84  52  32 S8        29.73S
SCOBEY           N/A     83  51  32 S1        29.75F
$$

MTZ028>42-056>058-262000-
SOUTHCENTRAL AND SOUTHEAST MONTANA

CITY           SKY/WX    TMP DP  RH WIND       PRES   REMARKS
BAKER          FAIR      85  56  37 E13       29.78F
BILLINGS       FAIR      78  58  49 VRB6      29.77S
LIVINGSTON     FAIR      75  53  46 NW7       29.82F
MILES CITY     FAIR      86  59  39 SE10      29.71F
BIG TIMBER     SUNNY     72  55  56 NW5       29.84
EKALAKA          N/A     85  57  38 E9        29.79F
LAUREL           N/A     77  57  50 VRB3      29.78S
$$

REGIONAL REPORTS...DAKOTAS

CITY           SKY/WX    TMP DP  RH WIND       PRES   REMARKS
WILLISTON      FAIR      85  49  28 VRB3      29.73F
MINOT          FAIR      90  45  21 S5        29.72F
DICKINSON      FAIR      88  44  21 VRB3      29.76F
BEACH          FAIR      86  50  28 SE9G18    29.79F
CROSBY         FAIR      86  45  23 SW8       29.73F
TIOGA          FAIR      84  48  28 SW12      29.77F
WATFORD CITY   FAIR      86  46  25 S8        29.74F
BISMARCK       FAIR      89  52  28 N7        29.75F
GRAND FORKS    FAIR      88  55  32 NW16G29   29.66S
FARGO          FAIR      91  50  24 NW18G31   29.68F
BUFFALO SD       N/A     89  53  29 SE13G23   29.71F
RAPID CITY     FAIR      83  63  50 S15G23    29.78F
$$

REGIONAL REPORTS...WYOMING/IDAHO/WASHINGTON

CITY           SKY/WX    TMP DP  RH WIND       PRES   REMARKS
GILLETTE       FAIR      90  38  16 SW21G29   29.77F
SHERIDAN       FAIR      79  59  50 NW7       29.77F
BUFFALO WY     FAIR      82  56  40 N20       29.80S
CODY           FAIR      78  46  32 SE9       29.84F
YELLOWSTONE LA   N/A     61  35  37 SE5       30.04F
IDAHO FALLS    FAIR      69  48  47 VRB6      29.90S
SALMON         FAIR      72  48  42 VRB3      29.83F
BOISE          PTSUNNY   70  52  52 NW18G28   29.87F
SPOKANE        FAIR      66  43  43 S15       29.96R
$$

REGIONAL REPORTS...ALBERTA

CITY           SKY/WX    TMP DP  RH WIND       PRES   REMARKS
CALGARY        MOSUNNY   66  36  32 VRB10     29.83F
CARDSTON         N/A     57  52  82 S3          N/A
EDMONTON       SUNNY     64  39  39 W8        29.80S
FORT MCMURRAY  MOSUNNY   66  37  34 W20G33    29.61S
HIGH LEVEL     CLOUDY    52  45  76 W17       29.59R
LETHBRIDGE     LGT RAIN  64  46  52 NW8       29.85R
LLOYDMINSTER   PTSUNNY   68  54  60 N16       29.73R
MEDICINE HAT   MOSUNNY   79  54  41 N12G21    29.71S
ONEFOUR          N/A     75  50  41 NW16G23     N/A
PEACE RIVER    MOSUNNY   63  32  31 W17G28    29.73S
PINCHER CREEK    N/A     66  48  52 SE18      29.88R
WATERTON GATE    N/A     57  50  77 E7          N/A
$$

REGIONAL REPORTS...SASKATCHEWAN

CITY           SKY/WX    TMP DP  RH WIND       PRES   REMARKS
CORONACH         N/A     86  45  23 W12G18      N/A
CYPRESS HILLS    N/A     70  45  40 NW8         N/A
ESTEVAN        CLOUDY    84  50  30 W5        29.73F
MOOSE JAW        N/A     88  39  18 S10         N/A
PRINCE ALBERT  PTSUNNY   72  59  64 VRB9      29.70F
REGINA         PTSUNNY   86  50  28 S14       29.68F
ROCKGLEN         N/A     75  46  35 W12         N/A
SASKATOON      TSTM      73  57  56 VRB2      29.65S
SWIFT CURRENT  PTSUNNY   77  45  31 W16G26    29.68F
VAL MARIE        N/A     82  43  24 W5          N/A
$$



USA.gov is the U.S. government's official web portal to all federal, state and local government web resources and services.